Погода в Киркби-Лонсдейле

Великобритания     54°12′12″N   2°35′48″W
темп.,
°C
ветер,
м/с
пор.,
м/с
влажн.,
%
обл.,
%
осадки,
мм/ч
давл.,
гПа
погр.,
м
19 апреля, пн
пн1901:00+6вюв218298 0.1 102415
04:00+3в22796 0.0 102311
07:00+4вюв11785 0.0 102312
10:00+10ююв12655 0.0 1022558
13:00+12ю23566 0.0 10211332
16:00+13ю345328 0.0 10191540
19:00+11ююв116999 0.0 101918
22:00+9ююв1170100 0.0 101911
20 апреля, вт
вт2001:00+6вюв1181100 0.0 101910
04:00+7вюв117598 0.0 101911
07:00+7юз0079100 0.0 101911
10:00+10зюз1170100 0.0 1019413
13:00+12зюз3363100 0.1 10191130
16:00+12з3365100 0.1 10191063
19:00+10зсз127762 0.3 1019159
22:00+6св228913 0.1 102120
21 апреля, ср
ср2101:00+4всв329374 0.1 102138
04:00+5всв488285 0.0 1022476
07:00+4всв5108442 0.0 1024549
10:00+6св57608 0.0 1025800
13:00+9всв555167 0.0 10251403
16:00+9всв445157 0.0 10241599
19:00+6в46635 0.0 1025384
22:00+1в22765 0.0 102715
22 апреля, чт
чт2201:000в117857 0.0 102710
04:000юв117172 0.0 102710
07:00+1с007092 0.0 102816
10:00+7сз226199 0.0 1027503
13:00+11сз225425 0.0 10271236
16:00+12зсз225621 0.0 10271200
19:00+10з117546 0.0 102752
22:00+4в22865 0.0 102911
23 апреля, пт
пт2301:00+2в21843 0.0 102911
04:00+2в11834 0.0 102910
07:00+3вюв11805 0.0 102910
10:00+9вюв12635 0.0 1029545
13:00+12юв234612 0.0 10281279
16:00+13юв33467 0.0 10271374
19:00+10вюв356831 0.0 1027136
22:00+5в227216 0.0 102912